Regional Weather Roundup
Issued by NWS

Home | Current Version | Previous Version | Graphics & Text | Print | Product List | Glossary On
Versions: 1 2 3 4 5 6 7 8 9 10 11 12 13 14 15 16 17 18 19 20 21 22 23 24 25 26 27 28 29 30 31 32 33 34 35 36 37 38 39 40 41 42 43 44 45 46 47 48 49 50
000
ASUS43 KIND 180709
RWRIN

WEATHER ROUNDUP FOR INDIANA
NATIONAL WEATHER SERVICE INDIANAPOLIS IN
200 AM EST MON DEC 18 2017

NOTE: "FAIR" INDICATES FEW OR NO CLOUDS BELOW 12,000 FEET WITH NO
SIGNIFICANT WEATHER AND/OR OBSTRUCTIONS TO VISIBILITY.

* - STATION DOES NOT REPORT WEATHER SUCH AS PRECIPITATION OR FOG.

+ - STATION NOT QUALITY CONTROLLED BY THE NATIONAL WEATHER SERVICE.
    USE DATA WITH CAUTION...ESPECIALLY DEWPOINT AND RELATIVE
    HUMIDITY OBSERVATIONS.

INZ001>003-010>013-019-020-180800-
NORTHWEST INDIANA

CITY           SKY/WX    TMP DP  RH WIND       PRES   REMARKS
GARY /AIRPORT/ CLOUDY    43  38  81 S6        29.97F
KNOX *+        CLOUDY    41  37  87 SW8       29.99F
LA PORTE +     CLOUDY    38  36  93 SW6       29.98F WCI  34
MICHIGAN CITY+ CLOUDY    41  37  87 S6        29.98F
MONTICELLO +   CLOUDY    40  38  93 SW9       30.01S WCI  34
RENSSELAER +   CLOUDY    41  36  81 S9        29.99F
VALPARAISO     CLOUDY    42  39  89 SW9       29.98F

$$

LMZ046-743>745-180800-
SOUTHERN LAKE MICHIGAN

STATION/POSITION TIME  TEMP    WIND        PRES    WAVE
                       AIR SEA DIR/SP/G            HT
                 (UTC) (F)     (DEG/KT/KT) (MB)    (FT)
BURNS HARBOR     0640   43     210/  9/ 14 1015.6F
MICHIGAN CITY    0640   42     190/  9/ 11   N/A

$$

INZ004-005-014>016-021>024-180800-
NORTH CENTRAL INDIANA

CITY           SKY/WX    TMP DP  RH WIND       PRES   REMARKS
GOSHEN         CLOUDY    38  36  92 SW7       29.99F WCI  33
LOGANSPORT +   CLOUDY    39  36  87 SW10      30.03R WCI  32
PERU/GRISSOM   CLOUDY    40  40 100 SW8       30.01S WCI  34
ROCHESTER +    CLOUDY    41  39  93 SW7       30.01F
SOUTH BEND     CLOUDY    38  38 100 S9        29.98F WCI  31
WARSAW +       CLOUDY    39  36  87 SW5       30.00F WCI  36

$$

INZ006>009-017-018-025>027-180800-
NORTHEAST INDIANA

CITY           SKY/WX    TMP DP  RH WIND       PRES   REMARKS
AUBURN +       CLOUDY    39  36  87 SW7       30.01S WCI  34
FORT WAYNE     CLOUDY    38  36  92 SW9       30.02F WCI  31
HUNTINGTON +   CLOUDY    39  37  91 SW5       30.01F WCI  36
KENDALLVILLE + CLOUDY    38  37  93 SW10      29.99F WCI  31

$$

INZ028-029-035-036-043>045-051>053-180800-
WEST CENTRAL INDIANA

CITY           SKY/WX    TMP DP  RH WIND       PRES   REMARKS
CRAWFORDSVL +  CLOUDY    38  38 100 S8        30.04S WCI  33
GREENCASTLE +  CLOUDY    41  37  87 SW5       30.06S FOG
LAFAYETTE      CLOUDY    41  39  93 SW7       30.02F
TERRE HAUTE    CLOUDY    42  40  92 S8        30.06F FOG

$$

INZ030>032-037>040-046>048-054>057-064-065-180800-
CENTRAL INDIANA

CITY           SKY/WX    TMP DP  RH WIND       PRES   REMARKS
FRANKFORT +    CLOUDY    43  40  90 SW13      30.05S
GREENWOOD *+   CLOUDY    44  40  87 SW6       30.06S
INDIANAPOLIS   CLOUDY    41  38  89 SW12      30.05F
-EAGLE CREEK   CLOUDY    42  38  85 SW7       30.04F
KOKOMO +       CLOUDY    40  37  89 SW12      30.03F WCI  33
MARION +       CLOUDY    37  35  91 S8        30.03F WCI  31
MT COMFORT *+  CLOUDY    39  39 100 S6        30.05S WCI  35
SHELBYVILLE    CLOUDY    41  36  82 S9        30.05F
ZIONSVILLE +   CLOUDY    39  38  94 SW9       30.04F WCI  33

$$

INZ033-034-041-042-049-050-058-059-180800-
EAST CENTRAL INDIANA

CITY           SKY/WX    TMP DP  RH WIND       PRES   REMARKS
MUNCIE         CLOUDY    42  35  76 SW8       30.03F
RICHMOND +     CLOUDY    34  34 100 S6        30.06F FOG     WCI  29

$$

INZ060-061-067>069-081>083-085>088-180800-
SOUTHWEST INDIANA

CITY           SKY/WX    TMP DP  RH WIND       PRES   REMARKS
EVANSVILLE     LGT RAIN  44  44 100 SW8       30.11F FOG
HUNTINGBURG +  CLOUDY    43  42  97 S8        30.11S FOG
WASHINGTON +   CLOUDY    43  41  93 SW12      30.08S FOG

$$

INZ062-063-066-070>080-084-089>092-180800-
SOUTH CENTRAL AND SOUTHEAST INDIANA

CITY           SKY/WX    TMP DP  RH WIND       PRES   REMARKS
BEDFORD +      CLOUDY    41  39  93 S3        30.07F
BLOOMINGTON    CLOUDY    42  38  85 SW6       30.06F
MADISON *+     CLOUDY    41  39  93 S3        30.10F
NORTH VERNON + CLOUDY    39  37  93 S6        30.09F FOG     WCI  35

$$





USA.gov is the U.S. government's official web portal to all federal, state and local government web resources and services.